Location: *
(45.1961°N, 1.9694°E)
Time: 07:57:50
(UTC+00:00)

Terra - Pass Details

Date: 25 August 2019
Orbit: 701 x 703 km, 98.2° (Epoch: 22 September)

Event Time Altitude Azimuth Distance (km) Brightness Sun altitude
Exits shadow 20:53:14 28° 73° (ENE) 1,319 2.9 -20.9°
Maximum altitude 20:53:33 28° 66° (ENE) 1,312 3.0 -20.9°
Drops below altitude 10° 20:57:35 10° 8° (N) 2,181 4.8 -21.5°
Sets 21:00:06 0° 357° (N) 3,104 5.8 -21.8°
